ICT,Max TemperatureF,Mean TemperatureF,Min TemperatureF,Max Dew PointF,MeanDew PointF,Min DewpointF,Max Humidity, Mean Humidity, Min Humidity, Max Sea Level PressureIn, Mean Sea Level PressureIn, Min Sea Level PressureIn, Max VisibilityMiles, Mean VisibilityMiles, Min VisibilityMiles, Max Wind SpeedMPH, Mean Wind SpeedMPH, Max Gust SpeedMPH,PrecipitationIn, CloudCover, Events, WindDirDegrees
2012-8-1,88,82,76,78,74,73,79,70,62,29.89,29.83,29.77,6,6,5,25,14,,0.01,6,Rain,254
2012-8-2,89,83,77,77,75,73,79,71,61,29.89,29.82,29.76,6,6,4,18,14,,0.12,6,Rain,259
2012-8-3,90,84,78,77,75,73,74,69,59,29.86,29.81,29.75,6,6,6,20,16,,0.00,6,,260
2012-8-4,90,83,76,76,74,73,89,70,57,29.86,29.82,29.77,6,6,5,20,13,,0.00,4,,262
2012-8-5,89,86,82,76,74,73,89,70,57,29.89,29.83,29.78,6,6,5,17,12,,0.00,5,,264
2012-8-6,90,84,77,76,74,73,79,69,58,29.89,29.85,29.80,6,6,6,18,12,,0.00,3,,266
2012-8-7,89,85,81,76,74,72,79,70,56,29.92,29.86,29.79,6,6,6,18,9,23,0.00,5,,273
2012-8-8,88,82,77,78,74,72,94,75,62,29.89,29.83,29.77,6,6,6,14,6,,0.00,6,,277
2012-8-9,89,82,75,77,74,72,94,78,56,29.86,29.80,29.74,6,6,5,13,3,,0.00,6,Rain,268
2012-8-10,88,81,74,77,74,72,100,77,58,29.89,29.83,29.78,6,6,6,14,3,,0.00,6,,269
2012-8-11,90,82,74,77,74,73,96,77,59,29.92,29.87,29.80,6,6,5,14,3,,0.00,4,,273
2012-8-12,90,82,75,77,74,72,94,74,58,29.92,29.86,29.80,6,6,4,17,5,,0.00,5,,280
2012-8-13,90,82,73,77,74,72,94,74,54,29.89,29.83,29.75,6,6,6,14,5,,0.00,2,,284
2012-8-14,90,82,74,75,73,72,89,73,53,29.89,29.82,29.74,6,6,6,15,4,,0.00,2,,282
2012-8-15,90,83,76,75,73,72,94,73,55,29.89,29.82,29.76,7,6,6,15,5,,0.00,3,,288
2012-8-16,91,83,75,76,74,73,94,74,59,29.86,29.80,29.74,6,6,6,15,5,,0.00,5,,268
2012-8-17,87,81,75,78,75,70,89,73,62,29.83,29.77,29.71,6,6,4,18,11,,0.04,6,Rain,268
2012-8-18,88,82,75,78,75,72,94,81,64,29.86,29.80,29.72,6,5,1,29,5,34,0.59,6,Rain,242
2012-8-19,89,81,73,77,75,73,94,82,60,29.89,29.82,29.74,6,6,3,9,2,,0.51,5,Thunderstorm,257
2012-8-20,90,82,73,77,75,73,95,79,62,29.89,29.82,29.77,6,6,3,12,3,,0.08,5,,278
2012-8-21,87,80,74,77,74,72,95,81,66,29.89,29.82,29.77,6,4,2,20,7,,1.14,6,Rain-Thunderstorm,256
2012-8-22,88,82,76,76,74,72,94,78,64,29.89,29.83,29.74,6,4,1,23,10,23,1.38,6,Rain,292
2012-8-23,87,80,74,77,74,73,94,81,64,29.86,29.81,29.77,6,5,1,20,8,24,1.34,6,Rain,264
2012-8-24,87,80,73,77,74,72,94,81,70,29.89,29.80,29.75,6,4,2,24,12,33,0.35,6,Rain,270
2012-8-25,89,81,73,76,74,72,94,81,66,29.89,29.84,29.78,6,5,1,22,7,34,0.71,6,Rain,261
2012-8-26,87,80,72,80,75,72,94,84,70,29.89,29.82,29.75,6,5,1,32,6,,1.34,6,Rain,277
2012-8-27,83,78,73,77,74,72,94,84,71,29.86,29.82,29.77,6,4,1,29,10,40,1.73,6,Rain,266
2012-8-28,85,79,73,76,74,72,95,84,70,29.89,29.84,29.77,5,4,0,34,14,39,1.73,8,Rain,259
2012-8-29,88,82,75,77,74,72,95,80,62,29.92,29.87,29.81,6,5,1,23,7,34,0.31,6,Rain,255
2012-8-30,88,80,72,77,74,72,95,83,58,29.92,29.87,29.79,6,6,6,12,1,,0.00,6,,243
2012-8-31,89,81,73,77,74,72,95,80,62,29.92,29.85,29.78,6,6,5,13,3,,0.00,5,,288